[[{"header":{"parameterUnit":"m.s-1","parameterCategory":1,"la1":30.2991,"la2":30.254,"lo1":-89.0895,"lo2":-89.0444,"dy":0.0017,"dx":0.0017,"nx":28,"ny":28,"refTime":"2024-07-01T03:00:00:Z","depth":0,"parameterNumber":2,"parameterNumberName":"U-component_of_WINDS"},"data":[0,0,0,0,0,0,0,0,0,0,0,0,0,0,0,0,0,0,0,0,0,0,0,0,0,0,0,0,0,0,0,0,0,0,0,0,0,0,0,0,0,0,0,0,0,0,0,0,0,0,0,0,0,0,0,0,0,0,1.4156,1.4159,0,1.4371,1.4374,1.4376,1.4433,1.4432,1.4431,1.443,1.4654,1.466,1.4668,0,0,0,0,0,0,0,0,0,0,0,0,0,1.3797,1.3803,1.4156,1.4159,1.4162,1.4371,1.4374,1.4377,1.4434,1.4432,1.4431,1.4429,1.4651,1.466,1.4668,0,0,0,0,0,0,0,0,0,0,0,0,0,1.3977,1.3805,1.4156,1.4215,1.4222,1.4371,1.4374,1.4378,1.4434,1.4432,1.443,1.4428,1.4648,1.4659,1.4669,1.4775,0,0,1.4702,1.4707,0,0,0,0,0,0,0,0,1.3966,1.399,1.4204,1.4211,1.422,1.4374,1.433,1.4511,1.4435,1.4354,1.443,1.4427,1.4562,1.458,1.4625,1.4785,1.4795,1.4703,1.471,1.4714,1.4717,0,0,0,0,0,0,0,1.3954,1.3981,1.4241,1.4207,1.4217,1.4232,1.4255,1.4364,1.4466,1.4361,1.4365,1.439,1.4566,1.4614,1.463,1.4798,1.4703,1.4712,1.4719,1.4723,1.5055,1.5057,0,0,0,0,0,0,1.3931,1.397,1.4235,1.4248,1.4086,1.424,1.4266,1.4326,1.4465,1.4485,1.4391,1.4392,1.4597,1.4618,1.4638,1.477,1.4714,1.4724,1.4731,1.5053,1.5056,1.5058,0,0,0,0,0,0,1.3923,1.3954,1.4226,1.411,1.4146,1.4248,1.4315,1.4332,1.4379,1.4488,1.4507,1.4421,1.4596,1.4623,1.474,1.4778,1.4729,1.4739,1.505,1.5054,1.5057,1.5034,0,0,0,0,0,0,1.3912,1.3951,1.3991,1.4111,1.4152,1.4323,1.4318,1.4337,1.4397,1.44,1.4521,1.454,1.4597,1.4724,1.4751,1.4792,1.4747,1.5047,1.5052,1.5056,1.5031,1.5036,1.504,0,0,0,0,0,1.3899,1.3977,1.3993,1.4024,1.4205,1.4325,1.4349,1.4411,1.44,1.4442,1.4512,1.4536,1.477,1.4735,1.4766,1.4811,1.5045,1.505,1.5056,1.5029,1.5035,1.504,0,0,0,0,0,0,1.386,1.3994,1.4013,1.4131,1.4216,1.4334,1.4389,1.4415,1.4506,1.4505,1.458,1.4607,1.4718,1.4777,1.4736,1.492,1.4908,1.492,1.4877,1.4884,1.4888,1.4871,1.4756,0,0,0,0,0,1.3865,1.3951,1.4063,1.4157,1.4199,1.4286,1.4341,1.4382,1.4473,1.451,1.4589,1.4677,1.4771,1.4831,1.4923,1.5041,1.5068,1.5087,1.5091,1.5094,1.5103,1.5169,1.5178,1.5076,1.5076,1.5076,0,0,1.3877,1.396,1.401,1.4151,1.4222,1.4309,1.4316,1.4409,1.4474,1.4525,1.4638,1.4699,1.4804,1.492,1.4976,1.4973,1.5138,1.5101,1.5103,1.511,1.5175,1.5185,1.5193,1.5079,1.5079,1.5078,0,0,1.3942,1.4014,1.4099,1.4169,1.4276,1.4334,1.4354,1.4468,1.451,1.4626,1.4664,1.4745,1.4904,1.4976,1.5034,1.5126,1.5151,1.5154,1.5175,1.5238,1.5246,1.5254,1.5285,1.5296,1.5163,1.5163,1.5163,0,1.3942,1.4075,1.414,1.423,1.4291,1.4339,1.4426,1.4492,1.4623,1.4664,1.4659,1.4859,1.4933,1.5067,1.5089,1.5135,1.516,1.514,1.524,1.5248,1.5256,1.5287,1.5299,1.5162,1.5162,1.5162,1.5163,0,1.407,1.4161,1.4218,1.4342,1.4409,1.4497,1.4576,1.4637,1.4672,1.473,1.4847,1.4937,1.5048,1.5083,1.5119,1.5222,1.5217,1.5225,1.5213,1.5264,1.5294,1.5307,1.5162,1.5162,1.5162,1.5162,0,0,1.4115,1.4274,1.4293,1.435,1.447,1.4543,1.4633,1.474,1.479,1.488,1.4957,1.5091,1.5098,1.5164,1.5209,1.5264,1.5329,1.5265,1.5269,1.5272,1.5447,1.5439,1.5451,1.5347,1.535,1.5352,1.5438,0,1.4194,1.4356,1.4417,1.455,1.4635,1.4682,1.4761,1.4844,1.4901,1.4982,1.5046,1.5139,1.5143,1.5182,1.5239,1.5309,1.5365,1.5304,1.542,1.5423,1.539,1.5468,1.546,1.5536,1.545,1.5452,1.5454,0,1.4308,1.4396,1.4537,1.4646,1.4684,1.4754,1.4856,1.4933,1.5028,1.5066,1.5138,1.5179,1.5276,1.526,1.5395,1.5351,1.5403,1.5444,1.5449,1.5461,1.544,1.548,1.5563,1.5573,1.5473,1.5472,1.547,0,1.4324,1.4479,1.4583,1.463,1.4761,1.4809,1.4866,1.4959,1.5019,1.5109,1.5149,1.525,1.5304,1.5382,1.5449,1.5431,1.5577,1.5567,1.5611,1.5609,1.5638,1.5635,1.5728,1.5674,1.5674,1.5673,1.5673,0,1.4405,1.4488,1.4592,1.4656,1.4751,1.4821,1.4914,1.4974,1.5057,1.5133,1.5182,1.5252,1.5338,1.542,1.5474,1.5576,1.5601,1.5634,1.5647,1.5629,1.5625,1.5663,1.5658,1.5677,1.5676,1.5675,1.5675,0,1.4439,1.4512,1.4628,1.4742,1.4773,1.4838,1.4936,1.5,1.5059,1.5155,1.5182,1.5275,1.5374,1.5449,1.5579,1.5615,1.5723,1.5738,1.569,1.5697,1.5736,1.5731,1.5856,1.5875,1.5808,1.5809,1.581,0,1.4484,1.455,1.467,1.4724,1.4781,1.4868,1.4929,1.5001,1.5062,1.5175,1.5226,1.5328,1.5413,1.557,1.565,1.5749,1.5765,1.5802,1.578,1.5759,1.5764,1.5758,1.5765,1.5804,1.5805,1.5805,1.5805,0,1.4557,1.459,1.4675,1.4774,1.4845,1.4926,1.5009,1.5051,1.5137,1.5204,1.5306,1.5372,1.5503,1.5603,1.571,1.577,1.5802,1.5811,1.5827,1.5808,1.5777,1.5793,1.5696,1.5808,1.5808,1.5808,1.5807,1.5807,1.4598,1.4657,1.4751,1.4845,1.4914,1.499,1.5055,1.5122,1.5207,1.5318,1.5356,1.546,1.5554,1.57,1.5761,1.5844,1.5845,1.5867,1.5872,1.5876,1.5874,1.5765,1.5864,1.5864,1.5864,1.5864,1.5864,0,1.4671,1.4734,1.4819,1.4932,1.5006,1.5029,1.5121,1.5181,1.5272,1.5356,1.5439,1.5555,1.5653,1.574,1.5842,1.5891,1.5909,1.5916,1.5912,1.5925,1.5869,1.5844,1.59,1.59,1.59,1.59,1.59,1.59,1.4718,1.482,1.4863,1.5,1.5063,1.5164,1.5215,1.5285,1.5352,1.5479,1.556,1.5616,1.5702,1.581,1.5901,1.5924,1.5959,1.5962,1.5989,1.5934,1.5929,1.5925,1.5902,1.5969,1.5969,1.6038,1.6039,1.6039]},{"header":{"parameterUnit":"m.s-1","parameterCategory":1,"la1":30.2991,"la2":30.254,"lo1":-89.0895,"lo2":-89.0444,"dy":0.0017,"dx":0.0017,"nx":28,"ny":28,"refTime":"2024-07-01T03:00:00:Z","depth":0,"parameterNumber":3,"parameterNumberName":"V-component_of_WINDS"},"data":[0,0,0,0,0,0,0,0,0,0,0,0,0,0,0,0,0,0,0,0,0,0,0,0,0,0,0,0,0,0,0,0,0,0,0,0,0,0,0,0,0,0,0,0,0,0,0,0,0,0,0,0,0,0,0,0,0,0,3.0065,3.0065,0,3.0059,3.0059,3.0059,2.9985,2.9983,2.9981,2.9979,2.9972,2.9974,2.9975,0,0,0,0,0,0,0,0,0,0,0,0,0,3.001,3.0012,3.0065,3.0065,3.0065,3.0059,3.0059,3.0059,2.9985,2.9983,2.998,2.9978,2.9972,2.9973,2.9975,0,0,0,0,0,0,0,0,0,0,0,0,0,3.0022,3.0012,3.0065,3.0027,3.0024,3.0059,3.0059,3.0059,2.9985,2.9983,2.998,2.9977,2.9971,2.9973,2.9975,3.0046,0,0,2.9983,2.9984,0,0,0,0,0,0,0,0,3.0022,3.0024,3.0033,3.003,3.0026,3.002,3.0037,3.0054,2.9986,3.0,2.9979,2.9976,2.999,2.9991,2.9996,3.0046,3.0045,2.9983,2.9984,2.9985,2.9986,0,0,0,0,0,0,0,3.0021,3.0024,3.0062,3.0033,3.0029,3.001,3.0008,3.004,3.0011,2.9999,2.9993,2.9993,2.9988,2.9994,2.9995,3.0045,2.9983,2.9985,2.9986,2.9987,3.0149,3.0151,0,0,0,0,0,0,3.0026,3.0024,3.0063,3.0062,3.0017,3.0013,3.0012,3.0025,3.001,3.0005,2.9996,2.999,2.9991,2.9992,2.9994,3.0073,2.9985,2.9987,2.9989,3.0146,3.0149,3.0152,0,0,0,0,0,0,3.0025,3.003,3.0063,3.0042,3.0044,3.0017,3.0032,3.0026,3.0032,3.0008,3.0002,3.0007,2.9989,2.9991,3.0033,3.0072,2.9988,2.9991,3.0142,3.0147,3.0151,3.0232,0,0,0,0,0,0,3.0023,3.003,3.0057,3.0043,3.0046,3.0102,3.0035,3.0028,3.0036,3.0028,3.0017,3.0013,2.9987,3.003,3.0035,3.0073,2.9992,3.0139,3.0144,3.015,3.0226,3.0239,3.025,0,0,0,0,0,3.0022,3.0081,3.0059,3.0064,3.0079,3.0105,3.0106,3.0075,3.004,3.0066,3.005,3.0013,3.0067,3.0035,3.004,3.008,3.0136,3.0143,3.0149,3.022,3.0236,3.0249,0,0,0,0,0,0,3.0101,3.0078,3.0054,3.011,3.011,3.0092,3.0125,3.0094,3.0103,3.0096,3.0057,3.0055,3.0102,3.0095,3.0059,3.0145,3.0095,3.0103,3.0147,3.0162,3.0174,3.0173,2.9994,0,0,0,0,0,3.0125,3.0148,3.0127,3.0179,3.018,3.0153,3.0163,3.0138,3.0136,3.0136,3.0124,3.0123,3.0139,3.0151,3.0165,3.0225,3.022,3.0255,3.0267,3.0277,3.0283,3.0311,3.0326,3.0174,3.0174,3.0174,0,0,3.0175,3.0165,3.0182,3.0194,3.0191,3.0214,3.0153,3.0181,3.0197,3.014,3.0178,3.0169,3.0165,3.0216,3.0238,3.0212,3.0324,3.0285,3.0293,3.0294,3.032,3.0334,3.0347,3.0178,3.0177,3.0177,0,0,3.0276,3.0273,3.0314,3.0312,3.0308,3.0289,3.0299,3.0285,3.0277,3.0314,3.0271,3.029,3.032,3.0318,3.0321,3.042,3.0385,3.0426,3.0487,3.0515,3.0527,3.0538,3.057,3.0582,3.0433,3.0433,3.0433,0,3.0338,3.0372,3.0339,3.0369,3.0374,3.0323,3.0363,3.0363,3.0364,3.0368,3.034,3.0374,3.0368,3.0416,3.044,3.0445,3.0453,3.0426,3.0528,3.0538,3.0548,3.0578,3.059,3.0438,3.0437,3.0437,3.0436,0,3.0447,3.0471,3.0505,3.0505,3.0515,3.055,3.0521,3.0534,3.0509,3.0493,3.053,3.0522,3.0531,3.0541,3.0518,3.0585,3.0569,3.0536,3.0483,3.0567,3.0595,3.0606,3.0445,3.0443,3.0442,3.044,0,0,3.0598,3.0579,3.0591,3.0589,3.058,3.0598,3.063,3.0639,3.065,3.0653,3.0676,3.0702,3.067,3.0674,3.0649,3.0675,3.0749,3.0637,3.0636,3.0655,3.0819,3.0843,3.0857,3.0727,3.073,3.0731,3.0819,0,3.0693,3.0746,3.0716,3.0773,3.0793,3.0744,3.0771,3.0768,3.0754,3.0768,3.0752,3.077,3.0728,3.0729,3.0752,3.0736,3.0781,3.0729,3.0747,3.0748,3.0747,3.0872,3.0897,3.098,3.083,3.0831,3.0833,0,3.0812,3.0817,3.0876,3.086,3.0867,3.0892,3.0897,3.0912,3.0907,3.0894,3.0898,3.0866,3.0895,3.0846,3.0884,3.0849,3.0855,3.0848,3.085,3.0849,3.0794,3.0871,3.1006,3.1017,3.085,3.0849,3.0848,0,3.0911,3.0934,3.0971,3.0972,3.0955,3.0973,3.0967,3.0959,3.0966,3.097,3.0973,3.0982,3.0985,3.0992,3.0963,3.0931,3.1004,3.0953,3.0992,3.0993,3.1008,3.1007,3.1143,3.1017,3.1017,3.1017,3.1016,0,3.1019,3.1056,3.1015,3.1037,3.1077,3.1041,3.1081,3.107,3.1063,3.1081,3.1041,3.1059,3.1022,3.1036,3.1014,3.1047,3.105,3.1039,3.1032,3.1041,3.1042,3.1042,3.1035,3.102,3.1019,3.1018,3.1018,0,3.1136,3.1111,3.1147,3.1128,3.1124,3.1153,3.1137,3.1156,3.1139,3.1162,3.1166,3.1139,3.1153,3.1126,3.1137,3.1122,3.1167,3.1153,3.1169,3.1163,3.1203,3.1199,3.1342,3.1358,3.1224,3.1226,3.1227,0,3.1205,3.1232,3.1215,3.1224,3.122,3.1236,3.1242,3.1208,3.1216,3.1211,3.1231,3.1241,3.1248,3.1273,3.1253,3.1261,3.1245,3.1295,3.1246,3.1253,3.1242,3.124,3.1241,3.1304,3.1306,3.1307,3.1308,0,3.1329,3.1315,3.1325,3.133,3.1338,3.1341,3.134,3.135,3.1314,3.1325,3.1338,3.1344,3.1354,3.1364,3.1367,3.136,3.1328,3.1324,3.1333,3.1341,3.1348,3.1341,3.1193,3.132,3.1319,3.1318,3.1317,3.1317,3.1422,3.1442,3.1433,3.1445,3.1441,3.1441,3.1457,3.1441,3.1452,3.1457,3.1437,3.1455,3.1447,3.1447,3.1443,3.1456,3.1434,3.1448,3.1451,3.1454,3.1459,3.1348,3.1457,3.1457,3.1456,3.1456,3.1456,0,3.1541,3.1532,3.1544,3.1544,3.1553,3.1522,3.1519,3.1528,3.1544,3.154,3.1546,3.1561,3.157,3.1552,3.1558,3.1572,3.1557,3.1574,3.1571,3.157,3.148,3.147,3.1586,3.1586,3.1586,3.1586,3.1586,3.1586,3.1604,3.1636,3.162,3.1648,3.1639,3.1656,3.1656,3.1656,3.1651,3.1669,3.1677,3.1664,3.1653,3.1658,3.1665,3.1659,3.1662,3.1685,3.1673,3.1589,3.1576,3.1564,3.1555,3.1686,3.1686,3.1762,3.1762,3.1763]}]]